Weather History for Winona, MN

Change the Weather History Date:

Wednesday, October 5, 2011

  Actual Average Record
Temperature  
Mean Temperature 68 °F -  
Max Temperature 82 °F 61 °F 82 °F (1997)
Min Temperature 53 °F 46 °F 28 °F (2001)
Cooling Degree Days 2    
Growing Degree Days 18 (Base 50)    
Moisture  
Dew Point 49 °F    
Average Humidity 63    
Maximum Humidity 88    
Minimum Humidity 25    
Precipitation  
Precipitation 0.00 in - - ()
Sea Level Pressure  
Sea Level Pressure 30.13 in    
Wind  
Wind Speed 2 mph (SE)    
Max Wind Speed 8 mph    
Max Gust Speed -    
Visibility 10 miles    
Events      
Averages and records for this station are not official NWS values.
T = Trace of Precipitation, MM = Missing Value Source: NWS Daily Summary

Daily Weather History Graph

Daily Weather History Graph

Search for Another Location

Airport:

Trip Planner

Search our weather history database for the weather conditions in past years. The results will help you decide how hot, cold, wet, or windy it might be!

Date:

Astronomy

Oct. 05, 2011 Rise Set
Actual Time 7:08 AM CDT 6:40 PM CDT
Civil Twilight 6:40 AM CDT 7:09 PM CDT
Nautical Twilight 6:06 AM CDT 7:43 PM CDT
Astronomical Twilight 5:32 AM CDT 8:16 PM CDT
Moon 3:32 PM CDT (10/5) 12:43 AM CDT (10/5)
Length of Visible Light 12h 29m
Length of Day
11h 31m
Waxing Gibbous, 66% of the Moon is Illuminated
Oct 5
Waxing Gibbous
Oct 11
Full
Oct 19
Last Quarter
Oct 26
New
Nov 2
First Quarter

Hourly Weather History & Observations

Time (CDT) Temp. Dew Point Humidity Pressure Visibility Wind Dir Wind Speed Gust Speed Precip Events Conditions
12:14 AM 55.4 °F 50.0 °F 82% 30.14 in 10.0 mi Calm Calm - N/A   Clear
12:33 AM 53.6 °F 48.2 °F 82% 30.14 in 10.0 mi Calm Calm - N/A   Clear
12:54 AM 55.4 °F 50.0 °F 82% 30.14 in 10.0 mi Calm Calm - N/A   Clear
1:14 AM 55.4 °F 50.0 °F 82% 30.14 in 10.0 mi Calm Calm - N/A   Clear
1:33 AM 55.4 °F 50.0 °F 82% 30.14 in 10.0 mi Calm Calm - N/A   Clear
1:54 AM 55.4 °F 50.0 °F 82% 30.14 in 10.0 mi Calm Calm - N/A   Clear
2:14 AM 53.6 °F 50.0 °F 88% 30.14 in 10.0 mi Calm Calm - N/A   Clear
2:33 AM 53.6 °F 50.0 °F 88% 30.14 in 10.0 mi Calm Calm - N/A   Clear
2:54 AM 53.6 °F 48.2 °F 82% 30.14 in 10.0 mi Calm Calm - N/A   Clear
3:14 AM 53.6 °F 50.0 °F 88% 30.14 in 10.0 mi Calm Calm - N/A   Clear
3:33 AM 53.6 °F 48.2 °F 82% 30.14 in 10.0 mi Calm Calm - N/A   Clear
3:54 AM 53.6 °F 50.0 °F 88% 30.15 in 10.0 mi Calm Calm - N/A   Clear
4:14 AM 53.6 °F 48.2 °F 82% 30.15 in 10.0 mi Calm Calm - N/A   Clear
4:54 AM 53.6 °F 48.2 °F 82% 30.15 in 10.0 mi SSE 4.6 mph - N/A   Clear
5:14 AM 53.6 °F 50.0 °F 88% 30.15 in 10.0 mi SSE 4.6 mph - N/A   Clear
5:33 AM 53.6 °F 50.0 °F 88% 30.15 in 10.0 mi SSE 3.5 mph - N/A   Clear
5:54 AM 53.6 °F 50.0 °F 88% 30.15 in 10.0 mi SSE 5.8 mph - N/A   Clear
6:14 AM 53.6 °F 50.0 °F 88% 30.15 in 10.0 mi SSE 4.6 mph - N/A   Clear
6:34 AM 53.6 °F 50.0 °F 88% 30.15 in 10.0 mi SSE 4.6 mph - N/A   Clear
6:54 AM 53.6 °F 50.0 °F 88% 30.15 in 10.0 mi SSE 4.6 mph - N/A   Clear
7:14 AM 53.6 °F 50.0 °F 88% 30.16 in 10.0 mi SSE 5.8 mph - N/A   Clear
7:33 AM 53.6 °F 50.0 °F 88% 30.16 in 10.0 mi SSE 4.6 mph - N/A   Clear
7:54 AM 53.6 °F 50.0 °F 88% 30.16 in 10.0 mi SSE 4.6 mph - N/A   Clear
8:14 AM 55.4 °F 50.0 °F 82% 30.16 in 10.0 mi Calm Calm - N/A   Clear
8:34 AM 55.4 °F 50.0 °F 82% 30.16 in 10.0 mi SSE 3.5 mph - N/A   Clear
9:14 AM 59.0 °F 50.0 °F 72% 30.17 in 10.0 mi SE 5.8 mph - N/A   Clear
9:34 AM 60.8 °F 50.0 °F 68% 30.16 in 10.0 mi SE 6.9 mph - N/A   Clear
9:54 AM 60.8 °F 50.0 °F 68% 30.16 in 10.0 mi SE 5.8 mph - N/A   Clear
10:34 AM 66.2 °F 50.0 °F 56% 30.16 in 10.0 mi SE 6.9 mph - N/A   Clear
10:54 AM 68.0 °F 51.8 °F 56% 30.16 in 10.0 mi ESE 6.9 mph - N/A   Clear
11:14 AM 68.0 °F 50.0 °F 52% 30.16 in 10.0 mi ESE 6.9 mph - N/A   Clear
11:34 AM 69.8 °F 51.8 °F 53% 30.15 in 10.0 mi SE 5.8 mph - N/A   Clear
11:54 AM 73.4 °F 51.8 °F 47% 30.15 in 10.0 mi SE 5.8 mph - N/A   Clear
12:14 PM 73.4 °F 50.0 °F 44% 30.14 in 10.0 mi East 5.8 mph - N/A   Clear
12:34 PM 73.4 °F 50.0 °F 44% 30.14 in 10.0 mi ESE 6.9 mph - N/A   Clear
12:54 PM 77.0 °F 50.0 °F 39% 30.13 in 10.0 mi East 6.9 mph - N/A   Clear
1:14 PM 78.8 °F 51.8 °F 39% 30.12 in 10.0 mi ESE 8.1 mph - N/A   Clear
1:34 PM 78.8 °F 50.0 °F 36% 30.12 in 10.0 mi SE 8.1 mph - N/A   Clear
1:54 PM 78.8 °F 48.2 °F 34% 30.11 in 10.0 mi ESE 8.1 mph - N/A   Clear
2:34 PM 82.4 °F 42.8 °F 25% 30.09 in 10.0 mi SSW 5.8 mph - N/A   Clear
2:54 PM 82.4 °F 42.8 °F 25% 30.09 in 10.0 mi SSW 5.8 mph - N/A   Clear
3:14 PM 82.4 °F 44.6 °F 26% 30.09 in 10.0 mi Calm Calm - N/A   Clear
3:34 PM 82.4 °F 44.6 °F 26% 30.08 in 10.0 mi South 5.8 mph - N/A   Clear
4:14 PM 80.6 °F 42.8 °F 26% 30.08 in 10.0 mi South 3.5 mph - N/A   Clear
4:34 PM 80.6 °F 42.8 °F 26% 30.07 in 10.0 mi SSE 5.8 mph - N/A   Clear
4:54 PM 80.6 °F 42.8 °F 26% 30.07 in 10.0 mi SSE 4.6 mph - N/A   Clear
5:14 PM 78.8 °F 51.8 °F 39% 30.07 in 10.0 mi SE 3.5 mph - N/A   Clear
5:34 PM 77.0 °F 53.6 °F 44% 30.07 in 10.0 mi SE 3.5 mph - N/A   Clear
5:54 PM 73.4 °F 51.8 °F 47% 30.07 in 10.0 mi ESE 4.6 mph - N/A   Clear
6:14 PM 71.6 °F 53.6 °F 53% 30.07 in 10.0 mi Calm Calm - N/A   Clear
6:34 PM 69.8 °F 53.6 °F 56% 30.08 in 10.0 mi Calm Calm - N/A   Clear
6:54 PM 68.0 °F 51.8 °F 56% 30.08 in 10.0 mi SSE 3.5 mph - N/A   Clear
7:14 PM 68.0 °F 51.8 °F 56% 30.08 in 10.0 mi SSE 3.5 mph - N/A   Clear
7:34 PM 68.0 °F 51.8 °F 56% 30.09 in 10.0 mi SSE 4.6 mph - N/A   Clear
8:14 PM 60.8 °F 50.0 °F 68% 30.09 in 10.0 mi SE 3.5 mph - N/A   Clear
8:34 PM 66.2 °F 50.0 °F 56% 30.10 in 10.0 mi SSE 4.6 mph - N/A   Clear
8:54 PM 62.6 °F 48.2 °F 59% 30.10 in 10.0 mi Calm Calm - N/A   Clear
9:14 PM 59.0 °F 46.4 °F 63% 30.10 in 10.0 mi Calm Calm - N/A   Clear
9:34 PM 59.0 °F 48.2 °F 67% 30.11 in 10.0 mi Calm Calm - N/A   Clear
9:54 PM 59.0 °F 50.0 °F 72% 30.11 in 10.0 mi Calm Calm - N/A   Clear
10:14 PM 55.4 °F 51.8 °F 88% 30.11 in 10.0 mi Calm Calm - N/A   Clear
10:34 PM 55.4 °F 50.0 °F 82% 30.12 in 10.0 mi Calm Calm - N/A   Clear
10:54 PM 55.4 °F 50.0 °F 82% 30.12 in 10.0 mi Calm Calm - N/A   Clear
11:14 PM 55.4 °F 50.0 °F 82% 30.12 in 10.0 mi Calm Calm - N/A   Clear
11:34 PM 55.4 °F 50.0 °F 82% 30.12 in 10.0 mi Calm Calm - N/A   Clear
11:54 PM 55.4 °F 48.2 °F 77% 30.12 in 10.0 mi Calm Calm - N/A   Clear